Flag for U.S.A. Weather past 2 weeks in Jefferson City, Missouri, U.S.A.

Now
41 °F

Overcast.


Feels Like: 33 °F
Forecast: 26 / 43 °F
Wind: 16 mph from Northwest

Location: Jefferson City Memorial Airport

Current Time: Jan 29, 2015 at 7:03:25 PM

Latest Report: Jan 29, 2015 at 5:53 PM


Visibility: 10 mi

Pressure: 30.37 "Hg

Humidity: 58%

Dew point: 27 °F

Location of Jefferson CityLocation

Historic Weather in Jefferson City — Graph

°F

Jefferson City temperature yesterday

Maximum temperature yesterday: 62 °F (at 3:53 PM)
Minimum temperature yesterday: 32 °F (at 5:53 AM)
Average temperature yesterday: 47 °F

Past Weeks' High & Low Weather Summary

 TemperatureHumidityPressure
High62 °F (Jan 28, 3:53 PM)96% (Jan 27, 5:53 AM)30.51 "Hg (Jan 27, 5:53 AM)
Low16 °F (Jan 15, 6:53 AM)22% (Jan 18, 2:53 PM)29.57 "Hg (Jan 25, 5:53 AM)
Average39 °F67%30.04 "Hg
* Reported Jan 14 5:53 PM — Jan 29 5:53 PM, Jefferson City, Weather by CustomWeather, © 2014

Note: Actual official high and low records may vary slightly from our data, if they occured in-between our weather recording intervals... More about our weather records

Advertising

Jefferson City weather history for previous 24 hours

 ConditionsComfort  
Time TempWeatherWind HumidityBarometerVisibility
5:53 PM
Jan 29
41 °FOvercast.16 mph58%30.37 "Hg10 mi
4:53 PM41 °FOvercast.18 mph60%30.33 "Hg10 mi
3:53 PM42 °FOvercast.14 mph57%30.29 "Hg10 mi
2:53 PM42 °FMostly cloudy.13 mph62%30.27 "Hg10 mi
1:53 PM42 °FOvercast.16 mph60%30.24 "Hg10 mi
12:53 PM41 °FOvercast.17 mph60%30.24 "Hg10 mi
11:53 AM41 °FOvercast.17 mph58%30.22 "Hg10 mi
10:53 AM41 °FOvercast.21 mph62%30.21 "Hg10 mi
9:53 AM41 °FOvercast.14 mph67%30.18 "Hg10 mi
8:53 AM41 °FOvercast.17 mph76%30.13 "Hg10 mi
7:53 AM41 °FOvercast.16 mph70%30.10 "Hg10 mi
6:53 AM42 °FOvercast.18 mph71%30.05 "Hg9 mi
5:53 AM43 °FOvercast.20 mph68%30.00 "Hg10 mi
4:53 AM46 °FOvercast.21 mph66%29.94 "Hg10 mi
3:53 AM49 °FClear.21 mph64%29.86 "Hg10 mi
2:53 AM53 °FClear.24 mph55%29.81 "Hg10 mi
1:53 AM53 °FClear.8 mph59%29.77 "Hg10 mi
12:53 AM55 °FClear.9 mph55%29.75 "Hg10 mi
11:53 PM
Jan 28
56 °FClear.14 mph51%29.75 "Hg10 mi
10:53 PM56 °FClear.8 mph49%29.77 "Hg10 mi
9:53 PM53 °FClear.12 mph52%29.77 "Hg10 mi
8:53 PM54 °FClear.10 mph49%29.79 "Hg10 mi
7:53 PM54 °FClear.15 mph49%29.80 "Hg10 mi
Weather by CustomWeather, © 2014

See weather overviewHow to use our weather pages